Temperature
23 22 21 21 18 18 20 21 22 22 22 22 22 21 20 20 20 19 20 20 21 20 20 20 20 20 20 19 19 19 19 19 19 19 19 18 18 18 18 18 18 18 18 18 18 18 18 18 18
23 22 21 21 18 19 20 21 22 22 22 22 22 22 21 20 20 20 20 20 20 20 20 20 20 20 19 19 19 19 18 18 18 18 18 18 18 18 18 18 18 18 18 18 18 18 18 18 18
22 21 21 18 16 20 21 22 21 21 22 23 22 22 21 20 19 19 19 20 20 20 20 21 21 20 20 20 20 19 19 18 18 18 18 18 18 18 18 18 18 18 17 17 17 17 17 17 18
22 22 21 19 19 21 22 22 21 21 22 23 22 21 21 20 20 19 19 19 20 20 20 20 20 20 20 20 19 19 19 18 18 18 18 18 18 18 18 18 18 17 17 17 17 17 17 17 18
22 22 17 18 20 21 21 23 23 22 22 23 23 20 19 19 19 19 19 19 19 19 19 20 20 21 20 20 19 19 19 18 18 18 18 18 18 18 18 17 17 17 17 17 17 17 17 17 17
22 19 19 20 20 21 22 24 24 23 23 23 22 19 17 17 19 19 19 19 18 18 19 19 19 20 20 20 20 19 18 18 17 17 17 18 18 17 17 17 17 17 17 17 17 17 17 17 17
21 17 20 20 20 22 23 23 23 22 22 23 23 18 17 17 19 19 19 19 19 19 19 19 19 19 19 19 19 18 18 18 17 17 17 17 17 17 17 17 17 17 17 17 17 17 17 17 17
22 18 20 20 21 24 24 24 25 25 22 23 22 18 17 17 18 19 19 19 20 20 19 19 19 18 18 18 18 18 18 18 17 17 17 17 17 17 17 17 17 16 17 17 17 17 17 17 17
22 18 19 20 23 24 25 25 25 25 24 23 22 21 19 18 18 18 19 19 20 21 21 22 21 19 18 18 17 17 17 17 17 17 17 17 17 16 16 16 17 17 17 17 17 17 17 17 17
20 18 19 21 23 24 24 25 26 25 23 20 19 19 19 18 18 19 20 21 22 23 23 22 22 20 19 18 17 17 17 17 17 17 16 16 16 16 16 16 17 16 16 16 16 17 17 17 16
20 20 21 22 25 24 24 25 26 24 22 21 18 17 18 18 19 20 21 22 23 23 23 22 22 21 19 18 17 17 17 17 16 16 16 16 16 16 16 16 16 16 16 16 16 16 16 16 16
21 22 22 24 26 24 24 25 25 25 25 24 23 21 19 19 19 20 21 21 22 22 22 21 21 20 19 18 18 17 16 16 16 16 16 16 16 16 16 16 16 16 16 16 16 16 16 16 16
21 22 24 25 26 25 25 25 25 23 25 24 20 18 19 19 19 20 21 23 22 21 21 20 20 19 18 18 18 17 17 16 16 16 16 16 16 16 16 16 16 16 16 16 16 16 16 16 16
22 23 23 25 25 25 24 25 24 21 22 20 18 18 19 19 19 20 21 22 21 20 20 20 20 19 18 17 17 17 17 16 16 16 16 16 16 16 16 16 16 16 16 16 16 16 16 15 15
23 22 22 23 25 25 25 25 21 20 20 18 18 18 18 18 19 20 22 22 21 21 20 19 19 18 17 17 17 17 16 16 16 15 16 16 16 15 15 15 15 15 15 15 15 15 15 15 15
20 21 22 23 24 25 25 23 19 19 19 19 17 17 17 18 19 20 21 21 21 21 20 19 18 18 17 16 16 16 16 16 15 15 15 16 16 15 15 15 15 15 15 15 15 14 14 14 14
19 20 22 22 23 24 24 23 21 19 18 18 17 16 17 17 18 19 19 20 21 20 19 18 18 18 17 16 16 16 16 15 15 15 15 15 15 15 15 15 15 15 14 14 14 13 13 13 14
19 20 21 21 22 22 21 21 18 18 17 16 16 16 16 17 17 18 19 19 19 19 18 17 17 17 17 16 16 15 15 15 15 15 15 15 14 14 14 14 14 14 13 13 13 13 13 12 12
19 19 19 20 21 22 19 17 17 17 17 16 14 15 15 16 16 17 18 18 18 18 17 17 17 17 17 16 16 15 15 15 15 15 14 14 13 13 13 12 12 12 12 12 12 11 11 10 10
19 19 19 20 21 20 18 17 16 15 15 15 14 14 14 14 16 16 16 16 17 16 16 17 17 16 16 15 15 15 15 15 14 14 13 13 12 12 11 11 11 11 10 10 10 10 9 9 9
18 18 19 19 20 18 18 18 17 15 14 15 15 14 14 14 15 14 15 15 15 15 16 16 16 15 15 14 14 14 14 14 13 13 12 12 12 11 10 10 10 9 9 9 8 8 8 8 7
18 19 19 19 18 18 19 17 17 16 14 13 14 15 15 14 14 14 14 14 14 14 14 14 14 14 14 14 13 13 13 13 12 11 11 11 11 10 9 9 8 8 7 7 7 6 6 6 6
19 19 19 19 17 17 17 17 17 15 15 14 14 14 15 15 14 13 14 14 14 14 14 13 13 13 13 12 12 12 12 12 11 11 10 10 9 8 8 8 7 7 6 5 5 5 4 4 4
21 20 17 15 15 16 17 17 16 14 17 15 15 14 13 13 13 13 13 14 13 13 12 12 13 12 12 12 12 12 12 11 10 10 9 8 7 7 7 6 5 5 5 4 4 3 3 3 3
20 19 17 17 17 17 17 16 17 16 16 16 15 14 13 13 13 13 13 12 11 11 12 12 12 12 12 12 12 12 11 10 9 8 7 7 6 6 5 5 4 4 3 3 3 2 2 2 2
18 17 17 17 17 17 16 16 18 15 15 16 15 13 13 12 12 12 12 11 11 12 12 13 13 12 12 12 12 11 9 8 7 7 6 5 5 5 5 4 4 3 3 3 2 2 2 2 2
17 18 18 18 17 15 17 17 16 12 13 14 14 13 12 12 11 11 11 11 12 12 12 12 12 11 11 11 10 9 8 7 6 5 4 4 4 4 4 3 4 3 3 2 2 2 2 2 2
19 19 15 18 16 16 17 16 17 13 13 14 14 13 12 11 11 10 11 12 12 12 11 12 11 11 11 10 9 7 7 6 5 4 4 4 4 4 3 3 3 3 3 3 2 2 2 2 2
19 18 18 17 16 16 17 17 15 13 13 14 14 12 11 10 10 11 12 12 11 11 12 11 11 11 10 9 7 6 6 5 4 4 4 4 4 4 3 3 3 3 3 3 3 2 2 2 1
19 18 16 16 16 14 15 16 11 10 12 13 13 11 10 10 11 11 11 11 11 12 11 11 9 9 8 6 5 4 4 4 4 4 4 4 4 3 3 3 4 4 3 3 3 3 2 2 1
Wind_Speed
6 6 3 3 4 3 3 4 2 2 4 3 6 7 5 3 4 2 1 3 7 8 8 9 11 12 13 13 13 13 12 12 12 12 12 11 11 10 10 9 9 10 9 8 6 4 4 2 3
4 4 2 4 4 1 5 3 1 1 5 7 5 6 3 1 1 4 4 6 6 6 7 8 11 12 12 12 12 13 12 11 11 10 10 10 9 9 8 7 7 8 9 9 8 8 6 4 2
3 4 3 4 3 5 4 2 3 2 4 5 5 3 3 1 3 4 5 9 6 4 4 6 10 12 14 15 14 12 11 10 10 9 9 8 8 7 6 6 5 5 5 5 5 4 3 2 1
3 4 4 2 4 6 5 4 7 7 1 2 5 4 4 5 5 7 10 9 6 3 2 5 7 9 11 12 11 13 11 9 9 8 7 6 6 5 4 3 3 3 2 1 1 1 0 3 4
4 4 3 2 6 5 5 7 11 11 7 6 7 5 5 6 14 15 12 8 5 5 3 3 5 7 9 11 10 10 11 9 8 7 6 5 4 3 3 2 2 1 0 1 2 4 5 4 4
4 3 2 3 6 6 5 9 11 8 5 7 8 6 5 8 16 14 12 9 7 5 4 2 1 4 8 11 11 9 9 10 8 7 8 7 5 4 4 2 1 2 2 3 5 5 5 4 5
4 4 2 3 6 5 3 3 7 8 7 6 9 6 6 7 12 14 12 10 7 5 2 1 1 1 3 6 9 10 9 8 8 9 9 8 6 4 3 2 1 1 1 2 4 4 4 5 6
5 4 1 3 4 3 1 1 5 8 5 5 7 8 8 13 15 14 11 8 6 6 2 2 3 4 5 6 9 10 10 9 9 9 9 6 3 3 3 2 2 2 2 2 1 2 2 2 4
4 4 2 5 1 4 2 2 4 6 8 5 4 6 17 22 18 14 9 4 2 4 6 9 9 9 7 6 7 8 8 8 8 7 5 4 3 3 2 3 5 5 4 3 1 2 2 2 3
4 3 7 5 2 4 8 6 5 7 8 6 10 18 23 21 19 16 13 11 8 9 9 8 8 7 7 6 6 6 6 7 6 5 3 3 2 1 2 3 3 3 2 1 2 4 4 3 2
5 5 5 6 7 5 5 3 5 10 7 10 22 28 23 21 17 16 12 10 14 11 5 8 7 6 5 3 4 3 2 3 3 2 3 2 2 3 3 3 3 4 3 3 4 4 3 3 4
3 6 4 6 3 2 4 4 5 8 7 15 28 33 27 23 19 17 11 10 10 5 1 2 2 4 4 3 4 4 3 3 2 2 2 2 2 2 2 2 3 3 4 5 6 6 6 7 7
3 4 4 7 10 5 5 5 5 6 11 23 26 25 24 22 18 13 10 12 1 4 5 7 5 4 3 3 3 4 4 4 4 4 4 4 4 3 3 2 3 4 6 6 6 6 7 8 8
4 4 6 7 7 2 4 1 4 6 23 26 26 22 21 20 18 12 8 8 7 10 9 6 2 4 4 3 4 4 6 6 4 3 2 4 7 5 3 2 2 3 4 4 4 3 3 4 5
3 5 7 3 3 3 4 2 2 13 24 25 22 20 20 16 14 14 11 3 8 7 5 3 2 6 7 5 4 4 4 5 4 4 4 3 1 1 1 1 1 1 2 2 2 3 2 2 3
5 3 3 5 4 4 5 2 5 10 23 24 19 16 18 15 13 9 4 7 6 6 6 3 2 7 8 6 4 3 5 7 7 8 8 7 6 4 4 3 3 4 5 4 3 3 4 5 5
4 1 2 5 5 6 6 3 8 10 15 20 17 16 17 15 12 5 5 6 6 6 5 3 3 8 8 7 5 7 9 9 10 10 11 11 12 10 7 5 3 4 4 3 2 3 3 4 5
3 2 3 4 3 6 3 2 1 4 6 13 16 16 16 17 11 6 5 4 5 6 3 2 5 8 8 7 8 8 8 7 10 11 12 13 13 13 11 8 8 7 4 4 4 4 5 5 5
5 4 6 6 4 2 0 1 1 3 5 2 3 8 12 10 7 7 6 5 4 5 1 4 8 7 7 6 6 6 6 5 7 10 13 14 14 13 12 7 7 7 6 6 6 3 4 5 5
3 2 7 7 1 1 3 2 0 3 4 4 4 3 5 5 7 7 6 7 7 4 6 8 10 8 6 6 5 5 5 6 5 7 11 13 14 14 12 8 6 6 5 6 7 5 3 3 4
5 5 7 8 0 1 3 1 2 2 4 6 6 7 6 7 9 9 9 10 9 8 9 10 10 10 8 8 7 7 6 5 4 5 5 9 13 13 12 9 6 5 4 4 4 3 3 2 2
7 9 10 8 3 4 4 5 5 4 3 5 8 10 9 8 8 11 13 13 11 11 11 13 13 11 10 9 8 8 5 4 3 2 4 6 11 11 10 9 7 5 4 4 4 4 3 2 3
8 7 7 6 4 4 3 4 5 1 6 9 10 11 10 9 10 12 15 15 14 13 13 13 14 13 10 9 8 8 7 5 4 3 5 4 4 6 6 6 5 4 3 3 4 4 3 2 2
6 3 4 3 3 3 8 8 6 8 12 9 12 12 13 12 13 16 16 17 15 13 13 13 14 13 11 10 9 8 8 5 3 2 2 2 2 2 4 4 3 3 2 2 3 3 3 3 2
4 3 3 3 2 7 4 6 9 12 10 14 19 18 14 14 16 18 18 16 13 11 11 10 13 10 8 9 8 7 6 5 2 1 0 0 1 1 2 1 1 1 1 0 0 1 1 2 3
8 9 8 5 7 8 3 8 8 6 6 8 16 19 16 16 17 18 17 15 12 11 10 9 10 7 5 6 6 5 4 3 2 1 2 3 2 2 2 1 1 1 1 2 1 1 2 3 4
7 7 7 5 2 5 6 6 5 3 3 13 18 20 17 17 18 18 16 12 11 11 8 9 9 6 4 5 5 4 4 4 3 2 3 2 2 3 3 3 2 2 3 4 3 3 4 4 5
6 8 4 3 4 6 7 5 7 9 11 15 18 19 17 18 18 16 12 12 10 10 10 9 10 10 7 5 5 4 3 1 0 2 3 3 4 3 4 5 4 4 6 7 6 5 6 6 6
5 4 4 4 4 6 8 8 3 8 14 17 15 16 18 19 17 14 11 11 11 10 9 8 6 7 7 5 3 2 1 1 2 4 5 5 4 5 5 6 6 6 8 9 7 8 8 8 8
3 4 7 5 4 4 3 5 9 6 10 16 18 18 19 19 16 13 10 8 6 7 6 6 4 4 5 3 1 1 2 1 2 5 6 5 5 6 7 6 6 7 9 10 9 10 9 8 9
Wind_Direction
154 145 120 76 50 48 271 258 264 74 110 123 126 124 141 144 162 181 70 115 119 121 142 143 144 143 138 132 131 133 136 140 140 135 131 125 124 126 129 135 143 151 156 161 165 168 163 133 78
125 123 77 71 78 21 268 250 197 180 136 137 110 108 103 144 117 120 104 103 96 111 135 137 137 138 139 137 136 136 141 146 149 145 141 134 131 131 134 141 153 159 165 169 175 184 185 166 131
112 86 86 83 117 203 234 215 133 129 156 135 119 111 115 110 79 101 93 98 77 72 111 138 137 144 148 150 146 141 145 153 155 153 148 144 142 143 147 154 171 179 183 175 189 205 205 164 36
102 65 53 96 226 231 204 159 141 144 254 40 105 89 62 63 78 94 94 85 79 68 107 132 139 143 150 141 141 144 151 155 158 159 152 154 152 159 159 170 178 183 189 198 269 254 325 65 50
58 82 57 335 258 243 220 170 163 175 169 155 133 107 55 49 87 88 81 69 50 39 51 101 135 134 140 138 137 141 149 158 170 171 161 157 157 166 169 201 181 184 265 346 25 39 51 54 29
61 81 90 271 272 272 248 178 165 163 138 136 114 95 69 102 101 94 93 78 53 32 38 23 68 111 122 145 157 162 166 168 172 175 163 159 162 180 201 195 224 285 338 52 56 38 30 21 4
125 110 181 235 278 305 308 147 144 140 134 155 125 90 109 119 111 109 107 101 95 75 26 26 310 99 132 141 155 166 167 162 158 160 157 154 163 177 185 166 185 249 108 98 75 40 22 7 348
130 108 160 247 263 306 13 164 141 129 139 122 114 134 154 148 126 111 100 105 110 89 11 302 238 217 198 177 169 158 157 160 154 149 148 151 172 165 164 178 207 217 187 151 91 2 13 358 345
118 90 216 225 225 326 349 275 133 119 109 88 86 132 145 142 128 117 112 109 126 129 205 205 199 195 186 183 184 166 165 167 160 157 158 150 141 145 166 201 208 215 200 172 237 285 328 342 352
129 159 220 217 205 271 289 263 164 116 109 82 90 119 136 139 139 143 162 170 190 201 206 207 192 177 176 180 193 184 180 170 165 156 140 134 151 190 215 225 242 239 204 200 297 310 328 335 325
170 208 222 230 226 220 262 244 157 123 167 170 145 142 150 150 152 161 181 188 201 209 191 201 174 156 156 147 148 156 167 147 149 135 118 102 51 9 1 353 360 351 351 336 313 307 300 280 277
211 255 264 282 266 157 241 169 167 152 180 161 154 154 156 159 164 173 186 217 228 245 260 37 70 109 105 118 145 148 151 137 132 141 126 93 59 39 6 7 344 332 322 306 286 282 289 288 283
229 272 267 276 293 258 207 187 179 114 126 136 148 155 159 163 166 180 196 230 334 18 5 23 39 70 92 127 135 154 153 143 153 174 188 207 212 213 236 262 292 291 296 297 291 307 325 328 324
225 271 288 289 293 275 152 213 110 131 134 139 151 162 168 165 165 176 204 242 50 38 23 24 62 95 124 154 171 169 153 148 148 161 204 255 240 223 241 255 255 261 280 287 272 279 309 309 314
303 312 318 303 312 8 66 63 127 154 145 151 159 165 170 165 170 186 194 94 67 56 43 40 132 135 144 160 181 169 148 133 102 72 26 356 270 172 141 65 30 3 312 295 325 304 293 317 328
1 13 330 316 348 36 93 186 173 177 157 161 166 162 169 171 183 191 148 81 68 60 46 20 155 145 138 138 134 117 97 88 76 76 74 64 64 72 76 61 25 5 17 17 4 354 343 3 358
7 244 246 301 7 30 39 266 182 188 174 165 170 169 174 173 186 181 81 71 71 67 52 32 143 136 134 127 102 80 78 80 81 76 70 69 69 72 75 63 38 37 43 29 32 37 27 19 357
211 274 272 255 333 21 14 275 95 161 192 184 176 174 180 179 177 121 105 100 66 57 30 96 111 118 114 102 91 85 77 67 67 62 59 64 63 61 60 52 43 45 46 27 35 68 53 26 354
173 211 260 263 248 273 159 329 9 136 131 201 239 195 185 167 128 119 128 95 55 39 74 104 103 98 102 99 92 86 77 67 63 59 55 56 56 50 49 45 41 44 51 37 31 51 49 24 4
163 237 279 286 265 144 137 148 84 105 127 152 174 211 201 145 123 119 107 68 61 67 76 77 76 76 69 78 84 90 89 77 70 58 47 50 55 53 53 47 43 45 49 42 35 31 15 1 15
195 192 245 256 98 185 132 277 205 139 132 133 134 145 153 167 149 127 97 89 87 71 63 66 62 66 61 70 86 89 84 70 47 40 39 46 60 59 56 53 49 46 50 49 35 28 21 338 334
236 219 233 257 168 244 189 258 248 180 165 163 155 153 160 154 137 121 112 101 91 84 76 70 63 57 55 60 78 78 77 88 68 72 81 57 56 53 47 41 38 35 30 36 27 28 17 1 333
227 206 204 232 203 233 225 201 262 161 227 208 177 160 154 145 138 120 111 100 87 76 72 71 69 58 52 57 72 83 85 85 91 84 84 75 57 51 49 51 54 46 32 32 33 26 17 9 331
221 108 53 49 83 243 227 205 243 207 212 184 174 164 144 132 129 113 101 94 85 78 74 70 68 54 48 57 63 77 88 84 83 80 78 45 17 17 30 48 57 52 32 12 20 13 7 4 350
134 113 353 319 253 249 205 166 239 227 209 184 170 160 146 135 125 117 110 103 99 92 86 82 84 75 67 74 76 83 92 99 115 150 146 173 285 302 333 22 63 84 58 333 358 346 333 337 332
171 156 177 222 268 285 180 210 242 256 257 179 160 145 143 139 130 125 124 125 122 108 98 100 102 100 100 100 98 98 105 126 147 206 209 209 220 240 254 244 210 183 204 239 269 312 292 297 310
158 174 179 162 260 269 259 269 276 355 96 149 151 145 152 141 132 131 133 132 125 117 117 122 120 130 136 121 125 138 151 156 151 210 230 233 241 241 245 261 280 288 281 279 271 260 268 283 290
152 152 138 173 184 253 257 243 230 204 179 167 161 157 148 133 132 136 142 138 131 135 145 147 161 164 154 159 155 161 135 118 208 277 285 269 262 260 282 284 289 294 279 271 266 273 278 284 289
145 148 149 161 186 216 244 249 256 241 184 173 167 156 145 138 143 144 146 144 145 149 144 138 161 144 146 161 179 113 55 284 274 270 273 274 297 302 280 260 258 274 277 270 262 264 271 277 292
124 137 133 158 213 180 192 267 347 299 163 159 157 150 142 141 146 145 139 138 144 137 128 131 160 139 135 172 196 236 289 357 301 275 271 277 287 289 281 277 270 277 280 274 262 269 278 285 292
Height
1518 1518 1519 1521 1525 1533 1534 1522 1514 1513 1514 1516 1518 1521 1524 1525 1528 1533 1528 1528 1531 1534 1535 1537 1538 1541 1543 1545 1545 1546 1548 1549 1549 1550 1552 1553 1554 1555 1556 1557 1558 1559 1559 1560 1561 1561 1562 1562 1562
1518 1518 1521 1521 1532 1540 1531 1518 1514 1512 1513 1516 1518 1520 1522 1523 1524 1525 1527 1529 1533 1536 1537 1538 1538 1541 1543 1545 1546 1547 1549 1550 1551 1552 1553 1554 1554 1555 1556 1558 1560 1560 1560 1561 1561 1562 1562 1562 1562
1517 1518 1521 1524 1536 1534 1525 1513 1511 1512 1512 1513 1517 1521 1523 1525 1526 1529 1531 1533 1535 1537 1538 1537 1538 1540 1543 1545 1548 1549 1551 1552 1553 1554 1555 1555 1555 1556 1557 1558 1560 1560 1560 1561 1561 1561 1561 1560 1560
1516 1519 1521 1526 1530 1520 1513 1509 1508 1511 1513 1515 1518 1522 1525 1529 1531 1532 1534 1536 1538 1538 1538 1537 1538 1540 1543 1545 1546 1548 1551 1553 1554 1555 1555 1556 1556 1556 1557 1558 1559 1559 1560 1560 1561 1560 1561 1560 1559
1515 1517 1526 1530 1522 1512 1506 1506 1507 1508 1511 1515 1517 1523 1529 1532 1532 1533 1536 1538 1540 1541 1540 1540 1539 1541 1542 1544 1546 1547 1549 1552 1553 1554 1555 1556 1556 1556 1557 1558 1559 1560 1560 1560 1561 1560 1560 1560 1560
1515 1517 1528 1530 1519 1506 1500 1499 1502 1506 1510 1513 1517 1523 1531 1532 1533 1534 1538 1539 1541 1542 1541 1541 1541 1542 1543 1544 1545 1547 1547 1548 1550 1551 1552 1554 1555 1556 1557 1558 1559 1559 1560 1560 1561 1560 1560 1559 1558
1514 1520 1524 1524 1517 1508 1499 1497 1499 1504 1509 1513 1517 1525 1531 1533 1533 1534 1536 1537 1538 1539 1540 1540 1541 1542 1543 1543 1543 1545 1546 1547 1548 1549 1551 1553 1555 1555 1556 1558 1559 1559 1559 1560 1560 1560 1559 1558 1558
1512 1517 1522 1522 1517 1507 1499 1498 1498 1502 1508 1513 1517 1524 1528 1529 1531 1533 1534 1536 1537 1537 1539 1539 1540 1541 1542 1542 1542 1543 1545 1547 1548 1549 1551 1552 1555 1556 1557 1558 1558 1559 1559 1560 1559 1559 1558 1557 1556
1511 1521 1525 1517 1510 1503 1499 1499 1499 1502 1506 1512 1516 1517 1518 1524 1529 1531 1534 1534 1534 1534 1534 1534 1536 1538 1539 1540 1542 1544 1546 1548 1549 1550 1551 1553 1554 1555 1556 1557 1557 1557 1558 1558 1558 1558 1558 1557 1556
1510 1520 1515 1505 1502 1502 1498 1497 1496 1501 1507 1512 1515 1516 1519 1523 1526 1528 1529 1528 1527 1528 1529 1531 1534 1534 1536 1539 1542 1544 1546 1547 1548 1549 1551 1552 1554 1554 1555 1556 1557 1557 1556 1556 1557 1557 1557 1557 1555
1506 1508 1502 1499 1498 1499 1496 1494 1495 1499 1506 1505 1508 1515 1519 1522 1524 1526 1527 1526 1526 1526 1528 1531 1533 1534 1536 1538 1540 1543 1545 1546 1547 1549 1551 1552 1553 1554 1555 1556 1556 1557 1557 1557 1556 1556 1555 1555 1555
1503 1499 1497 1495 1494 1496 1495 1492 1493 1495 1499 1501 1503 1506 1512 1516 1518 1521 1525 1525 1526 1529 1532 1534 1534 1536 1539 1539 1541 1543 1545 1546 1547 1549 1552 1552 1553 1553 1555 1556 1557 1557 1557 1556 1556 1555 1554 1554 1555
1501 1497 1495 1493 1491 1490 1490 1489 1492 1495 1496 1499 1505 1510 1511 1513 1516 1521 1525 1526 1528 1530 1532 1532 1532 1536 1538 1540 1541 1543 1545 1546 1548 1550 1552 1553 1553 1554 1554 1555 1556 1556 1556 1555 1554 1553 1553 1553 1553
1498 1496 1493 1490 1488 1487 1487 1489 1494 1496 1496 1499 1504 1508 1510 1512 1516 1521 1525 1527 1529 1529 1529 1531 1533 1536 1538 1540 1542 1544 1545 1547 1548 1549 1550 1551 1552 1553 1552 1552 1553 1553 1554 1553 1553 1551 1550 1549 1549
1495 1496 1493 1490 1489 1486 1487 1495 1496 1495 1497 1501 1504 1505 1508 1513 1516 1518 1524 1527 1528 1529 1529 1531 1533 1535 1537 1539 1542 1544 1546 1547 1548 1548 1548 1548 1550 1551 1551 1550 1551 1551 1551 1551 1549 1548 1546 1544 1544
1497 1500 1502 1492 1487 1487 1494 1505 1501 1500 1498 1501 1503 1503 1506 1510 1516 1520 1524 1524 1527 1529 1529 1530 1532 1534 1536 1539 1542 1544 1545 1545 1546 1545 1546 1547 1548 1548 1548 1548 1548 1548 1546 1545 1544 1542 1542 1539 1538
1507 1510 1505 1498 1491 1490 1495 1501 1499 1500 1500 1498 1500 1501 1504 1509 1515 1520 1524 1525 1527 1528 1528 1528 1530 1532 1535 1539 1541 1542 1543 1544 1544 1544 1545 1545 1546 1546 1545 1544 1544 1543 1541 1540 1538 1536 1535 1534 1533
1513 1509 1506 1504 1494 1495 1500 1501 1501 1500 1502 1499 1497 1499 1502 1506 1512 1519 1524 1525 1525 1526 1527 1527 1528 1530 1534 1536 1538 1539 1540 1542 1542 1543 1544 1544 1544 1544 1543 1542 1540 1539 1537 1536 1534 1532 1530 1529 1527
1504 1506 1508 1501 1495 1497 1503 1505 1504 1500 1502 1504 1505 1503 1502 1507 1512 1516 1520 1522 1523 1525 1526 1526 1527 1529 1531 1534 1536 1538 1539 1540 1541 1542 1542 1542 1542 1541 1540 1539 1537 1535 1533 1531 1530 1528 1526 1524 1522
1501 1505 1507 1499 1494 1497 1503 1505 1503 1501 1502 1502 1504 1507 1509 1509 1510 1515 1518 1521 1524 1526 1525 1526 1527 1529 1531 1533 1535 1537 1539 1539 1539 1539 1540 1539 1538 1537 1537 1536 1534 1531 1529 1527 1525 1523 1521 1519 1517
1501 1505 1504 1504 1497 1498 1502 1505 1503 1502 1501 1501 1501 1503 1508 1511 1512 1514 1518 1521 1525 1527 1527 1528 1530 1533 1535 1536 1537 1538 1539 1538 1537 1537 1537 1537 1536 1535 1535 1534 1532 1529 1527 1524 1522 1521 1518 1515 1513
1501 1494 1495 1497 1505 1509 1503 1518 1504 1500 1500 1499 1498 1501 1505 1509 1513 1514 1518 1522 1525 1527 1529 1531 1534 1535 1537 1539 1539 1538 1538 1537 1536 1535 1535 1535 1534 1533 1532 1530 1528 1526 1524 1521 1519 1516 1514 1512 1510
1490 1486 1492 1495 1502 1507 1505 1512 1505 1501 1499 1496 1496 1498 1502 1508 1512 1515 1518 1522 1525 1528 1532 1534 1535 1536 1538 1539 1539 1539 1538 1538 1537 1535 1533 1532 1531 1529 1528 1525 1522 1521 1520 1518 1515 1513 1510 1509 1506
1479 1485 1494 1502 1509 1517 1503 1506 1508 1499 1485 1488 1492 1497 1501 1507 1512 1515 1519 1522 1527 1530 1533 1536 1537 1539 1541 1541 1541 1540 1539 1538 1537 1534 1531 1529 1527 1526 1523 1520 1518 1515 1515 1514 1511 1509 1508 1506 1503
1482 1494 1512 1514 1514 1508 1496 1502 1497 1479 1474 1476 1482 1492 1500 1506 1511 1514 1518 1523 1528 1532 1535 1537 1539 1542 1542 1542 1540 1539 1537 1536 1535 1531 1528 1525 1524 1522 1520 1517 1514 1512 1510 1510 1509 1507 1505 1503 1499
1482 1490 1509 1517 1515 1504 1498 1501 1482 1472 1471 1474 1480 1488 1499 1506 1509 1514 1519 1524 1529 1533 1536 1539 1540 1542 1540 1539 1537 1535 1533 1532 1531 1529 1526 1523 1522 1520 1518 1516 1513 1511 1509 1508 1505 1503 1501 1499 1496
1482 1484 1480 1493 1501 1510 1496 1485 1478 1473 1472 1473 1479 1486 1497 1502 1507 1514 1520 1525 1528 1530 1534 1537 1539 1540 1538 1537 1535 1532 1528 1527 1526 1527 1526 1522 1519 1518 1517 1515 1512 1510 1509 1506 1503 1500 1498 1495 1492
1465 1469 1489 1490 1506 1510 1493 1491 1478 1475 1472 1474 1478 1485 1495 1502 1508 1513 1518 1521 1524 1527 1530 1533 1533 1532 1533 1535 1531 1526 1523 1524 1525 1526 1524 1520 1517 1515 1514 1512 1510 1508 1508 1505 1502 1498 1495 1492 1489
1465 1469 1472 1482 1488 1498 1497 1487 1469 1466 1465 1470 1480 1488 1494 1499 1506 1511 1516 1519 1520 1523 1524 1529 1533 1530 1529 1530 1528 1523 1520 1519 1520 1523 1522 1519 1516 1514 1512 1509 1506 1504 1504 1502 1500 1495 1492 1489 1485
1456 1462 1471 1485 1485 1490 1491 1485 1471 1463 1463 1468 1476 1485 1491 1497 1504 1510 1514 1519 1521 1521 1524 1525 1530 1529 1527 1528 1526 1522 1521 1519 1521 1522 1520 1517 1515 1514 1511 1507 1504 1501 1500 1498 1495 1491 1488 1484 1480